100  
ASUS41 KPHI 160813  
RWRPHI  
 
REGIONAL WEATHER ROUNDUP  
NATIONAL WEATHER SERVICE MOUNT HOLLY NJ  
400 AM EDT MON JUL 16 2018  
 
NOTE: "FAIR" INDICATES FEW OR NO CLOUDS BELOW 12,000 FEET WITH NO  
SIGNIFICANT WEATHER AND/OR S TO VISIBILITY
.  
 
* = STATION DOES NOT REPORT PRECIPITATION (E.G. RAIN, SNOW, ETC.)  
OR FOG.
 
 
NJZ015>026-160900-  
SOUTHERN NEW JERSEY  
 
CITY SKY/WX TMP DP RH WIND PRES REMARKS
 
POMONA FAIR 74 71 91 CALM 30.00S  
WILDWOOD* FAIR 73 70 90 CALM 30.01S  
MILLVILLE FAIR 69 67 93 CALM 30.00S  
WRIGHTSTOWN FAIR 71 70 96 CALM 29.97S  
MOUNT HOLLY FAIR N/A N/A N/A CALM 29.99S  
TRENTON FAIR 73 71 93 CALM 29.99R  
 

 
NJZ001>014-160900-  
NORTHERN NEW JERSEY  
 
CITY SKY/WX TMP DP RH WIND PRES REMARKS
 
SUSSEX FAIR 68 68 100 CALM 29.98F  
ANDOVER* N/A 68 68 100 CALM 30.00F  
MORRISTOWN FAIR 66 66 100 CALM 29.98F  
NEWARK FAIR 74 69 85 SW5 29.97S  
TETERBORO FAIR 74 70 87 S5 29.96S  
CALDWELL FAIR 73 70 90 VRB3 29.98S  
SOMERVILLE FAIR 67 67 100 CALM 29.97S FOG  
ALLAIRE* FAIR 71 69 93 SW6 30.00S  
TOMS RIVER* FAIR 69 67 93 W5 30.00S  
 

 
PAZ043-044-047-054-055-060>062-066>071-160900-  
EASTERN PENNSYLVANIA  
 
CITY SKY/WX TMP DP RH WIND PRES REMARKS
 
PHILADELPHIA FAIR 75 72 90 SW6 30.00S  
NORTH PHILA FAIR 76 71 85 SW3 30.00S  
BLUE BELL* FAIR 68 68 100 CALM 30.01S  
DOYLESTOWN FAIR 71 71 100 CALM 29.99F  
QUAKERTOWN* CLEAR 70 70 100 CALM 30.01S  
PERKASIE* FAIR 68 68 100 CALM 30.01F FOG  
POTTSTOWN FAIR 71 71 100 CALM 30.01F FOG  
LANCASTER FAIR 72 71 97 CALM 30.00S FOG  
COATESVILLE FAIR 72 72 100 SW3 30.03S FOG  
READING FAIR 73 72 96 CALM 29.99S  
ALLENTOWN FAIR 72 68 87 CALM 29.99F  
MOUNT POCONO FAIR 66 66 100 CALM 30.05F  
HAZLETON HAZE 64 59 82 CALM 30.07S VSB 1/2  
LEHIGHTON FOG 66 66 100 CALM 30.01S VSB 3/4  
WILKES BARRE FAIR 69 69 100 CALM 30.00F  
 

 
DEZALL-MDZ008-012-015-019-020-160900-  
DELAWARE AND EASTERN MARYLAND  
 
CITY SKY/WX TMP DP RH WIND PRES REMARKS
 
WILMINGTON FAIR 72 71 97 CALM 30.00S  
DOVER FAIR 73 70 92 S6 29.99S  
GEORGETOWN FAIR 73 71 93 S3 30.01S  
EASTON FAIR 76 73 93 CALM 30.03F  
PATUXENT FAIR 79 74 84 S3 29.99  
OCEAN CITY FAIR 78 71 79 SW8 30.01S  
WALLOPS ISLAND FAIR 78 71 79 SW5 30.01F  
CAMBRIDGE MOCLDY 77 73 88 CALM 30.00S  
SALISBURY FAIR 74 72 93 CALM 30.00F  
 

 
PAZ001-021-NYZ056-072-MDZ011-DCZ001-160900-  
OTHER NEARBY LOCATIONS  
 
CITY SKY/WX TMP DP RH WIND PRES REMARKS
 
HARRISBURG FAIR 75 69 81 CALM 29.98F  
STATE COLLEGE FAIR 69 68 98 CALM 30.02S  
WILLIAMSPORT CLOUDY 72 69 90 N3 29.98S  
BINGHAMTON FOG 68 68 100 SE3 30.01F VSB 1/2  
NEW YORK CITY FAIR 76 69 79 CALM 30.00S  
BALTIMORE FAIR 71 70 96 CALM 30.00S  
WASHINGTON DC FAIR 77 70 79 CALM 30.00F  
 

 
 
 
CLICK HERE TO GO TO PREVIOUS BULLETINS.

The Nexlab PA Page
The Nexlab NJ Page
The Nexlab DE Page
The Nexlab MD Page Main Text Page